Binghamton, NY
on Thursday, December 7, 2017

Thursday
       
Previous Day Next Day
Daily Summary
 ActualAverageRecord
Temperature
Mean Temperature °F °C 30°F -1°C  
Max Temperature 34°F 1°C 36°F 2°C 62°F 16°C (1951)
Min Temperature 25°F -4°C 24°F -4°C 7°F -13°C (1970)
Degree Days
Heating Degree Days 35 35  
Month to date heating degree days 205 237  
Since 1 July heating degree days 1603 1812  
Cooling Degree Days 0 0  
Month to date cooling degree days 0 0  
Year to date cooling degree days 349 381  
Moisture
Dew Point 17°F -8°C   
Average Humidity 58    
Maximum Humidity 75    
Minimum Humidity 41    
Precipitation
Precipitation T in / T cm 0.10 in / 2.54 cm 0.86 in / 2.18 cm (1976)
Month to date precipitation 0.31 0.72  
Year to date precipitation 47.20 37.19  
Snow
Snow T in / T cm 0.50 in / 1.27 cm 5.10 in / 12.95 cm (1959)
Month to date snowfall T 3.4  
Since 1 July snowfall 1.8 10.2  
Snow Depth 0.00 in / 0.00 cm   
Wind
Wind Speed 12 mph / 20 km/h   
Max Wind Speed 25 mph / 40 km/h   
Max Gust Speed 32 mph / 52 km/h   
Visibility 10 miles / 16 kilometers   
Events Snow   

Key: T is trace of precipitation, MM is missing value
Source: NWS Daily Summary
Time(EST)TemperatureDew PointHumidity Pressure Visibility Wind DirectionWind SpeedGust SpeedPrecipitationEvents Conditions
12:53 AM 30.9°F -0.6°C 19.9°F -6.7°C 64% 29.89 in / 1012.2 hPa 10.0 miles / 16.1 kilometers WSW 8.1 mph / 13.0 km/h - N/A   Overcast
1:53 AM 32.0°F 0.0°C 19.9°F -6.7°C 61% 29.91 in / 1012.9 hPa 10.0 miles / 16.1 kilometers WSW 9.2 mph / 14.8 km/h - N/A   Overcast
2:53 AM 32.0°F 0.0°C 16.0°F -8.9°C 52% 29.92 in / 1013.0 hPa 10.0 miles / 16.1 kilometers West 11.5 mph / 18.5 km/h - N/A   Overcast
3:53 AM 30.9°F -0.6°C 16.0°F -8.9°C 54% 29.92 in / 1013.0 hPa 10.0 miles / 16.1 kilometers West 12.7 mph / 20.4 km/h - N/A   Overcast
4:53 AM 30.0°F -1.1°C 15.1°F -9.4°C 54% 29.92 in / 1013.1 hPa 10.0 miles / 16.1 kilometers WSW 15.0 mph / 24.1 km/h - N/A   Overcast
5:53 AM 28.9°F -1.7°C 15.1°F -9.4°C 56% 29.93 in / 1013.5 hPa 10.0 miles / 16.1 kilometers West 15.0 mph / 24.1 km/h - N/A   Overcast
6:53 AM 27.0°F -2.8°C 14.0°F -10.0°C 58% 29.94 in / 1013.9 hPa 10.0 miles / 16.1 kilometers WSW 9.2 mph / 14.8 km/h - N/A   Partly Cloudy
7:53 AM 27.0°F -2.8°C 15.1°F -9.4°C 61% 29.95 in / 1014.2 hPa 10.0 miles / 16.1 kilometers WSW 9.2 mph / 14.8 km/h - N/A   Clear
8:53 AM 28.9°F -1.7°C 15.1°F -9.4°C 56% 29.96 in / 1014.4 hPa 10.0 miles / 16.1 kilometers WSW 13.8 mph / 22.2 km/h - N/A   Mostly Cloudy
10:53 AM 30.0°F -1.1°C 16.0°F -8.9°C 56% 29.96 in / 1014.5 hPa 10.0 miles / 16.1 kilometers WSW 17.3 mph / 27.8 km/h 24.2 mph / 38.9 km/h N/A   Overcast
11:53 AM 32.0°F 0.0°C 15.1°F -9.4°C 50% 29.93 in / 1013.5 hPa 10.0 miles / 16.1 kilometers WSW 16.1 mph / 25.9 km/h 28.8 mph / 46.3 km/h N/A   Overcast
12:53 PM 33.1°F 0.6°C 15.1°F -9.4°C 48% 29.91 in / 1012.7 hPa 10.0 miles / 16.1 kilometers WSW 11.5 mph / 18.5 km/h 19.6 mph / 31.5 km/h N/A   Overcast
1:53 PM 34.0°F 1.1°C 14.0°F -10.0°C 44% 29.89 in / 1012.0 hPa 10.0 miles / 16.1 kilometers West 12.7 mph / 20.4 km/h - N/A   Overcast
2:53 PM 33.1°F 0.6°C 12.9°F -10.6°C 43% 29.88 in / 1011.7 hPa 10.0 miles / 16.1 kilometers WSW 10.4 mph / 16.7 km/h 21.9 mph / 35.2 km/h N/A   Mostly Cloudy
3:35 PM 32.0°F 0.0°C 12.9°F -10.6°C 45% 29.83 in / 1010.0 hPa 10.0 miles / 16.1 kilometers SW 12.7 mph / 20.4 km/h 20.7 mph / 33.3 km/h N/A   Overcast
3:53 PM 32.0°F 0.0°C 12.0°F -11.1°C 44% 29.88 in / 1011.9 hPa 10.0 miles / 16.1 kilometers SW 9.2 mph / 14.8 km/h 20.7 mph / 33.3 km/h N/A   Overcast
4:53 PM 30.9°F -0.6°C 15.1°F -9.4°C 52% 29.90 in / 1012.5 hPa 10.0 miles / 16.1 kilometers WSW 16.1 mph / 25.9 km/h 23.0 mph / 37.0 km/h N/A   Overcast
5:25 PM 30.0°F -1.1°C 19.0°F -7.2°C 64% 29.86 in / 1011.1 hPa 4.0 miles / 6.4 kilometers WNW 15.0 mph / 24.1 km/h 26.5 mph / 42.6 km/h 0.00 in / 0.0 cm Snow Light Snow
5:53 PM 28.9°F -1.7°C 19.9°F -6.7°C 69% 29.92 in / 1013.2 hPa 7.0 miles / 11.3 kilometers WSW 17.3 mph / 27.8 km/h 21.9 mph / 35.2 km/h 0.00 in / 0.0 cm   Overcast
6:09 PM 28.0°F -2.2°C 19.9°F -6.7°C 72% 29.87 in / 1011.4 hPa 9.0 miles / 14.5 kilometers WSW 11.5 mph / 18.5 km/h 19.6 mph / 31.5 km/h 0.00 in / 0.0 cm   Scattered Clouds
6:53 PM 28.0°F -2.2°C 19.9°F -6.7°C 72% 29.94 in / 1013.7 hPa 10.0 miles / 16.1 kilometers WSW 12.7 mph / 20.4 km/h - 0.00 in / 0.0 cm   Partly Cloudy
7:53 PM 27.0°F -2.8°C 19.9°F -6.7°C 75% 29.95 in / 1014.1 hPa 10.0 miles / 16.1 kilometers WSW 10.4 mph / 16.7 km/h - N/A   Clear
8:53 PM 26.1°F -3.3°C 19.9°F -6.7°C 78% 29.96 in / 1014.4 hPa 10.0 miles / 16.1 kilometers WSW 11.5 mph / 18.5 km/h - N/A   Partly Cloudy
9:53 PM 27.0°F -2.8°C 18.0°F -7.8°C 69% 29.96 in / 1014.5 hPa 10.0 miles / 16.1 kilometers West 12.7 mph / 20.4 km/h - N/A   Overcast
10:53 PM 27.0°F -2.8°C 16.0°F -8.9°C 63% 29.97 in / 1014.8 hPa 10.0 miles / 16.1 kilometers WSW 8.1 mph / 13.0 km/h - N/A   Overcast
11:53 PM 25.0°F -3.9°C 15.1°F -9.4°C 66% 29.98 in / 1015.2 hPa 10.0 miles / 16.1 kilometers West 11.5 mph / 18.5 km/h - N/A   Mostly Cloudy